Location: Unspecified
(38.6320°N, 0.0000°E)
Time: 04:22:13
(UTC+00:00)

METEOR-3M - Visible Passes

Search period start: 04 April 2026 00:00
Search period end: 14 April 2026 00:00
Orbit: 993 x 1013 km, 99.8° (Epoch: 29 March)

Date Brightness Start Highest point End Pass type
(mag) Time Alt. Az. Time Alt. Az. Time Alt. Az.
4 Apr 7.6 03:48:53 10° ESE 03:53:19 21° ENE 03:57:46 10° NNE visible
4 Apr 8.1 20:02:54 10° NNW 20:05:45 14° WNW 20:08:37 10° W visible
5 Apr 6.7 04:20:14 10° SE 04:25:49 37° ENE 04:31:26 10° N visible
5 Apr 6.3 18:49:47 10° N 18:55:44 47° WNW 19:01:40 10° SW visible
6 Apr 8.4 03:15:15 10° ENE 03:15:57 10° NE 03:16:38 10° NE visible
6 Apr 5.5 04:52:22 10° SSE 04:58:28 67° ENE 05:04:38 10° N visible
6 Apr 7.4 19:23:13 10° N 19:28:18 27° WNW 19:33:22 10° WSW visible
7 Apr 7.8 03:44:04 10° ESE 03:48:13 19° ENE 03:52:24 10° NNE visible
7 Apr 8.1 19:57:21 10° NNW 20:00:41 15° WNW 20:04:02 10° W visible
8 Apr 6.9 04:15:15 10° SE 04:20:41 34° ENE 04:26:09 10° N visible
9 Apr 5.7 04:47:15 10° SSE 04:53:19 60° ENE 04:59:25 10° N visible
9 Apr 7.3 19:17:55 10° N 19:23:11 29° WNW 19:28:27 10° WSW visible
10 Apr 7.9 03:39:17 10° E 03:43:08 17° ENE 03:46:59 10° NNE visible
10 Apr 8.0 19:51:52 10° NNW 19:55:36 17° WNW 19:59:21 10° W visible
11 Apr 7.1 04:10:17 10° ESE 04:15:33 31° ENE 04:20:52 10° N visible
12 Apr 6.0 04:42:10 10° SE 04:48:10 55° ENE 04:54:12 10° N visible
12 Apr 7.1 19:12:37 10° N 19:18:04 32° WNW 19:23:31 10° SW visible
13 Apr 8.1 03:34:34 10° E 03:38:03 16° ENE 03:41:32 10° NNE visible
13 Apr 8.0 19:46:26 10° NNW 19:50:31 18° WNW 19:54:37 10° W visible
